Location: Colonia Mina de C?rbuni
(46.1667°N, 22.7167°E)
Time: 09:22:16
(UTC+00:00)

Vanguard 1 - Pass Details

Date: 14 April 2024
Orbit: 652 x 3825 km, 34.2° (Epoch: 29 May)

Event Time Altitude Azimuth Distance (km) Brightness Sun altitude
Rises 03:07:49 0° 215° (SW) 7,724 14.1 -6.8°
Reaches altitude 10° 03:14:34 10° 206° (SSW) 6,361 13.8 -5.7°
Maximum altitude 03:28:57 28° 157° (SSE) 3,889 13.2 -3.3°
Drops below altitude 10° 03:38:26 10° 104° (ESE) 4,158 14.4 -1.8°
Sets 03:41:40 0° 92° (E) 4,755 15.4 -1.2°
